很BT电影联盟,BT联盟,BTchina联盟,BT中国联盟,BT大联盟,BT影视联盟,BT下载联盟

影视大片(首发) | 蚂蚁高清网 | 资源搜索 | 发布资源 | 加入收藏

很BT发布页,资源发布帐号申请请联系: 190939100@qq.com,QQ:190939100。注明:发布小组 (广告业务 注明:广告)

种子下载:在资源页面的左上角<资源介绍的左边>"点击此处下载种子" ,或右键“目标另存为”即可下载种子

资源分享 RSS

发布时间 分类 资源名称 大小 种子 下载 完成 发布者/联盟
11/18 22:02 最新电影 秦时明月之龙腾万里/秦时明月大电影.The.Legend.of.Qin.2014.1080p.WEBRip.x264.AAC-SeeHD.国语中字 1.5GB 0 2 0 Imovie
11/18 21:59 720P高清 [美国][剧情/爱情][如果我留下][BD-mkv/2.71GB][中英][美14高分票冠军] [讨论] 2.7GB 0 1 0 killman
11/18 21:53 最新电影 致青春 兄弟篇.2014.HD720P.X264.AAC.国语中英字幕.Mp4Ba 1.4GB 0 0 0 Imovie
11/18 21:52 720P高清 [日本][剧情/喜剧][受难][BD-mkv/2.58GB][中字][日14新女穴长出男人脸] [讨论] 2.6GB 0 0 0 killman
11/18 21:50 最新电影 诡替身.Double.Exposure.2014.HD720P.X264.AAC.国语中文字幕.Mp4Ba 1.4GB 0 0 0 Imovie
11/18 21:45 最新电影 [中国][家庭/剧情][亲爱的][HD-MP4/1.25GB][国语][中14票房超好评高分必看] [讨论] 1.3GB 0 0 0 killman
11/18 11:00 最新电影 [美国][高分科幻][银河护卫队][720p高清BD-MP4/2.35G][国英双语/中英双字][2014最新] [讨论] 2.4GB 0 0 0 熊猫论坛
11/18 09:05 最新电影 [美国][空战/动作][红色天空][BD-RMVB/1.9G][英语中字][2014惊险空战动作大片] [讨论] 1.9GB 1 0 0 飘域家园
11/18 01:45 连续剧集 [美国][动作/惊悚/灾难][美剧行尸走肉第五季更新至06集][HD-MP4/500MB][中英][最新] [讨论] 582MB 0 0 0 killman
11/18 00:03 MKV电影 [罪恶之城2:蛇蝎美人]2014.BluRay.720P.X264.AC3-CNXP[中英字幕/2.2G] 2.2GB 0 2 0 影视帝国
11/17 23:57 MKV电影 [罪恶之城(未分级重剪辑加长版)]2005.BluRay.720p.X264.AC3-CNXP[中英字幕/3.0G] 3.0GB 0 0 0 影视帝国
11/17 23:48 MKV电影 [飞机总动员2:火线救援]2013.BluRay.720p.X264.AC3-CNXP[英粤台三语/中英字幕/2.3G] 2.3GB 0 0 0 影视帝国
11/17 23:43 MKV电影 [飞机总动员]2013.BluRay.720p.X264.AC3-CNXP[国英粤台四语/中英字幕/2.61G] 2.6GB 0 0 0 影视帝国
11/17 23:27 MKV电影 如果我留下.If.I.Stay.2014.双语字幕.HR-HDTV.AC3.1024X576.x264-人人影视网原创 1.6GB 0 0 0 人人影视
11/17 23:20 MKV电影 怪形.The.Thing.1982.双语字幕.HR-HDTV.AC3.1024X576.x264-人人影视网原创 1.7GB 0 0 0 人人影视
11/17 23:16 MKV电影 杀手.The.Killing.1956.双语字幕.HR-HDTV.AC3.1024X576.x264-人人影视网原创 1.2GB 0 0 0 人人影视
11/17 23:08 MKV电影 几近成名.Almost.Famous.2000.双语字幕.国英音轨.HR-HDTV.AC3.1024X576.x264-人人影视网原创 2.7GB 0 0 0 人人影视
11/17 23:03 MKV电影 落水狗.Reservoir.Dogs.1992.双语字幕.HR-HDTV.AC3.1024X576.x264-人人影视网原创 1.5GB 0 0 0 人人影视
11/17 22:56 MKV电影 杀手没有假期.In.Bruges.2008.双语字幕.HR-HDTV.AC3.1024X576.x264-人人影视网原创 1.6GB 0 0 0 人人影视
11/17 13:48 3D立体电影 [国产][2014动作][四大名捕3][左右3D版/1080P高清MKV/7.64G][国语中字] [讨论] 7.6GB 0 0 0 熊猫论坛
11/17 10:38 最新电影 [日本][剧情][受难/Passion][720p高清BD-MP4/1.1G][日语/中字][2014最新] [讨论] 1.1GB 0 0 0 熊猫论坛
11/17 09:06 720P高清 [美国][动作/犯罪][游戏终结/END GAME][BD-R/1.7G][英语中字][布特雷·诺茨/詹姆斯·伍兹] [讨论] 1.6GB 0 0 0 飘域家园
11/17 00:00 720P高清 [美国][动作/犯罪/惊悚][罪恶之城1][BD-mkv/3.81GB][中英双字幕][终极暴力必看神作] [讨论] 3.8GB 0 1 0 killman
11/16 23:55 720P高清 [韩国][爱情][后宫帝王之妾.国际版][BD-mkv/2.85GB][中文简繁][大尺度] [讨论] 2.9GB 0 0 0 killman
11/16 22:47 RMVB电影 [美国][银河护卫队][BD-RMVB.720p.中英双字][2014年高分科幻动作] 1.3GB 0 0 0 BT无忧无虑
11/16 22:38 RMVB电影 [2013][英国][喜剧][阿尔法爸爸][BD-RMVB/1.02G][中英字幕][480/720P双版] 1.6GB 0 0 0 影视帝国
11/16 22:27 RMVB电影 [2014][美法][惊悚][人类清除计划2:无政府状态][BD-RMVB/1.24G][中英字幕][480/720P双版] 1.9GB 0 0 0 影视帝国
11/16 22:20 RMVB电影 [2013][美法][恐怖/惊悚][人类清除计划][BD-RMVB/1.02G][中英字幕][480/720P双版] 1.6GB 0 0 0 影视帝国
11/16 21:59 最新电影 [美国][动作/科幻/冒险/喜剧][忍者神龟][HD-MP4/0.99GB][中字][美14票房爽爆眼球巨制] [讨论] 1015.7MB 0 0 0 killman
11/16 21:53 最新电影 [美国][十一月杀手][BD-RMVB.720p.中英双字][2014年布鲁斯南动作] 1.1GB 0 0 0 BT无忧无虑
11/16 20:18 1080P [银河护卫队/银河守护队]Guardians.of.the.Galaxy.2014.1080p.BluRay.x264-SPARKS 中字/8.75G 8.7GB 0 0 0 Y4DG论坛
11/16 20:16 720P高清 [银河护卫队/银河守护队]Guardians.of.the.Galaxy.2014.720p.BluRay.x264-SPARKS 中字/5.46G 5.5GB 0 0 0 Y4DG论坛
11/16 20:12 高清合集 [记录][史蒂芬.霍金纪录片四部][DVD/BD][中英字幕][15.2G] 15.2GB 0 1 0 badboy
11/16 17:09 高清合集 [星河战队三部曲]]Starship.Troopers.1997-2008.Trilogy.BluRay.720p.x264.AC3-CnSCG[中英字幕/10G] 9.6GB 0 0 0 badboy
11/16 16:43 纪录片 [1997][BBC:斯蒂芬·霍金的宇宙全6集(国英)][AVI/DVD][外挂字幕] 4.1GB 0 0 0 badboy
11/16 09:16 1080P 2014最新欧美灾难大片《末日迷踪》[尼古拉斯·凯奇主演最新动作惊悚大片/影片改编自同名小说] [讨论] 3.1GB 0 0 0 xy373
11/16 00:00 最新电影 [香港][四大名捕大结局][BD-MKV.720p.国粤双语中字][2014年动作] 1.3GB 0 0 0 BT无忧无虑
11/15 23:48 MKV电影 四百击.Les.quatre.cents.coups.1959.中文字幕.HR-HDTV.AC3.1024X576.x264-人人影视网原创 1.5GB 0 0 0 人人影视
11/15 23:43 MKV电影 大幻影.La.grande.illusion.1937.中文字幕.HR-HDTV.AC3.768X576.x264-人人影视网原创 1.7GB 0 0 0 人人影视
11/15 23:39 MKV电影 发条橙.A.Clockwork.Orange.1971.双语字幕.HR-HDTV.AC3.1024X576.x264-人人影视网原创 2.1GB 0 0 0 人人影视
11/15 23:09 MKV电影 窃听大阴谋.The.Conversation.1974.双语字幕.HR-HDTV.AC3.1024X576.x264-人人影视网原创 1.7GB 0 0 0 人人影视
11/15 23:01 MKV电影 斯巴达克斯.Spartacus.1960.双语字幕.国英音轨.HR-HDTV.AC3.1024X576.x264-人人影视网原创 3.3GB 0 0 0 人人影视
11/15 22:47 720P高清 [美国][动作/剧情/科幻][猩球崛起2][BD-mkv/3.94GB][英语国语双音轨][美14票房万众期待] [讨论] 3.9GB 0 0 0 killman
11/15 22:15 最新电影 毕业那年:分手季.The.Break.up.Season.2014.HD720P.X264.AAC.国语中英字幕.Mp4Ba 1.5GB 0 0 0 Imovie
11/15 22:03 1080P [敢死队3/浴血任务3(未分级版)]The.Expendables.3.2014.BluRay.1080p.AC3.x264-CHD 9.8G 9.8GB 0 0 0 Y4DG论坛
11/15 21:58 720P高清 [敢死队3/浴血任务3(未分级版)]The.Expendables.3.2014.BluRay.720p.AC3.x264-CHD 5G 5.0GB 0 0 0 Y4DG论坛
11/15 20:23 1080P [怪谈少女]Mourning.Grave.2014.1080p.BluRay.x264.DTS-WiKi 内封中英文字幕/7.95G 8.0GB 0 0 0 Y4DG论坛
11/15 20:14 1080P [四大名捕大结局]The.Four.3.2014.1080p.BluRay.x264.DTS-WiKi 国粤双语中字/8.5G 8.6GB 0 0 0 Y4DG论坛
11/15 19:50 720P高清 [宇宙:时空之旅].Cosmos.A.SpaceTime.Odyssey.2014.BluRay.720p.x264.DTS-HDWinG 29G 29.0GB 0 0 0 badboy
11/15 19:37 纪录片 [宇宙:时空之旅 第一季 全13集].2014.BluRay.720p.x264.AC3-CMCT[中英字幕/16.62G] 16.6GB 0 0 0 badboy
11/15 19:20 纪录片 [2010][美国][纪录片][斯蒂芬·霍金和万有理论全2集][BD-RMVB/1.13G][中英字幕][720P] 1.1GB 0 0 0 badboy
11/15 18:33 高清合集 [托纳多雷时空三部曲]海上钢琴师/天堂电影院/西西里的美丽传说.720p[中英字幕/13G] 13.2GB 0 0 0 badboy
11/15 17:15 720P高清 [美国][动作/喜剧/犯罪][龙虎少年队1][BD-mkv/2.94GB][中英双字幕][高分票房动喜剧] [讨论] 2.9GB 0 0 0 killman
11/15 17:06 最新电影 [法国][动作/科幻/惊悚][超体][HD-MP4/891MB][中字][14新万众期待票房烧脑必看] [讨论] 891.1MB 0 0 0 killman
11/15 00:12 RMVB电影 [2014][美国][动作/科幻][猩球崛起:黎明之战][BD-RMVB/1.64G][中英字幕][480/720P双版] 2.5GB 0 2 0 影视帝国
11/15 00:06 RMVB电影 [2011][美国][动作/科幻][猩球崛起][BD-RMVB/1.36G][中英字幕][480/720P双版] 2.1GB 0 0 0 影视帝国
11/14 22:57 720P高清 [美国][动作/犯罪/惊悚][罪恶之城2][BD-mkv/3.03GB][中英双字幕][美14必看暴力巨制] [讨论] 3.0GB 0 0 0 killman
11/14 22:39 最新电影 [韩国][少女怪谈/少女坟墓][BD-RMVB.720p.中字][2014年惊悚喜剧] 975.3MB 0 0 0 BT无忧无虑
11/14 22:38 最新电影 [美国][如果我留下][BD-RMVB.720p.中英双字][2014年科洛·莫瑞兹剧情] 1.1GB 0 0 0 BT无忧无虑
11/14 22:28 720P高清 [四大名捕大结局]The.Four.3.2014.720p.BluRay.x264-WiKi 国粤双语中字/4.36G 4.4GB 1 0 0 Y4DG论坛
11/14 22:23 720P高清 [鬼纳特归来]Bhoothnath.Returns.2014.BluRay.720p.x264.DTS-HDW 中文字幕/6.7G 6.7GB 0 0 0 Y4DG论坛
11/14 22:17 720P高清 [本能(导演剪辑未分级版)]Basic.Instinct.1992.BluRay.720p.x264.DTS-HDWing 8.5G 8.5GB 0 0 0 Y4DG论坛
11/14 21:57 蓝光原盘 [圣女贞德/圣女贞德的故事(原盘简繁中字)]1999.BluRay.1080p.AVC.TrueHD 5.1-HDW 42G 42.1GB 0 0 0 Y4DG论坛
11/14 21:42 蓝光原盘 [猩球崛起2:黎明之战]Dawn.of.2014.1080p.BluRay.AVC.DTS-HD.MA.7.1 43.96G 44.0GB 0 0 0 Y4DG论坛
11/14 21:34 RUMEX [猩球崛起2:黎明之战]Dawn.2014.1080p.BluRay.REMUX.AVC.DTS-HD.MA.7.1 24.96G 25.0GB 0 0 0 Y4DG论坛
11/14 21:00 最新电影 一个人的武林.Kung.Fu.Jungle.2014.TC720P.X264.AAC.国语中文字幕.Mp4Ba 2.2GB 0 0 0 Imovie
11/14 20:57 最新电影 郊游.Stray.Dogs.2013.HD720P.X264.AAC.国语中文字幕.Mp4Ba 2.3GB 0 0 0 Imovie
11/14 20:56 最新电影 德古拉元年.Dracula.Untold.2014.HD720P.X264.AAC.英语中文字幕.Mp4Ba 1.9GB 0 0 0 Imovie
11/14 20:52 最新电影 遇见春天.2014.HD720P.X264.AAC.国语中文字幕.Mp4Ba 843.7MB 0 0 0 Imovie
11/14 20:50 最新电影 深圳在路上.2014.HD720P.X264.AAC.国语中文字幕.Mp4Ba 448MB 0 0 0 Imovie
11/14 20:47 最新电影 爱上女主播.2014.HD720P.X264.AAC.国语中文字幕.Mp4Ba 2.3GB 0 0 0 Imovie
11/14 20:44 最新电影 失恋33年之一往情深.2014.HD720P.X264.AAC.国语中文字幕.Mp4Ba 1.1GB 0 0 0 Imovie
11/14 20:42 最新电影 少年岳飞.2014.HD720P.X264.AAC.国语无字幕.Mp4Ba 1.3GB 0 0 0 Imovie
11/14 20:40 最新电影 重生.The.Second.Coming.2014.HD720P.X264.AAC.粤语中字.Mp4Ba 1.6GB 0 0 0 Imovie
11/14 20:20 MKV电影 下水井.Manhole.2014.韩语中字.HR-HDTV.1024X576.x264-人人影视网原创 1.4GB 0 0 0 人人影视
11/14 20:15 MKV电影 猩球崛起2.黎明之战.2014.双语字幕.HR-HDTV.AC3.1024X558.x264-人人影视网原创 2.0GB 0 0 0 人人影视
11/14 16:19 最新电影 [韩国][高分恐怖][怪谈少女/少女坟墓][720p超清BD-MP4/1.68G][韩语/中字][2014最新] [讨论] 1.7GB 0 0 0 熊猫论坛
11/14 00:23 MKV电影 彼得松和芬杜斯:小活宝-忘年交.2014.中德字幕.HR-HDTV.AC3.1024X552.x264-人人影视网原创 1.3GB 0 0 0 人人影视
11/14 00:17 MKV电影 八部半.Eight.and.a.Half.1963.中文字幕.HR-HDTV.AC3.1024X552.x264-人人影视网原创 2.0GB 0 0 0 人人影视
11/14 00:10 MKV电影 猜火车.Trainspotting.1996.双语字幕.HR-HDTV.AC3.1024X576.x264-人人影视网原创 1.4GB 0 0 0 人人影视